FENGYUN 1C DEB, 31808

Orbit data source: Space-Track

FENGYUN 1C DEB, 31808 is space debris in SSO originally from a launch on Mon, 10 May 1999 UTC launched from the Taiyaun Space Center, China (TSC). Fengyun 1C debris stems from the Chinese weather satellite Fengyun-1C, which was intentionally destroyed by a Chinese anti-satellite missile in 2007. This event dramatically increased the amount of space debris, with thousands of trackable fragments posing hazards to satellites and human spaceflight. The Fengyun 1C debris cloud has become a focal point in discussions about space sustainability and the need for international regulations to prevent the creation of new debris.

Loading next visibility...
Identifier
31808, 1999-025CGW
Orbit
SSO
Country
Flag of CNCN / PRC
Related business
Manufacturer
Unknown
Mission
Spacecraft
Bus & Motor
Unknown
Mass
Unknown
Launch date (UTC)
1999-05-10 (27 years ago)
Launch vehicle
Unknown
Launch site
Taiyaun Space Center, China (TSC)
Object type
Payload
Rocket body
Debris
Shape & HBR
Unknown shape, 0.1 m
Radar Cross Section
Small (<0.1 m²)

Expand to show TLE details & history
Last TLE update: 2 days ago

TLE from 2 days ago
0 FENGYUN 1C DEB
1 31808U 99025CGW 26174.42915350  .00013902  00000-0  25259-2 0  9994
2 31808  99.1966  28.1039 0032096 277.4944  82.2610 14.65968141604185
Epoch: 2026-06-23T10:17Z
TLE epoch observation values (Epoch: 2026-06-23T10:17:58.862Z)
Latitude
-0.00003°
Longitude
-37.9922°
Altitude
673.952 km
Speed
7.521 km/s
True Right ascension
01h 52m 24s
True Declination
0° 00' 00"
Sunlit
Object was in daylight at epoch
Visualization orbit readout
Latitude
Unknown
Longitude
Unknown
Altitude
Unknown
Speed
Unknown
Apparent Right ascension
Unknown
Apparent Declination
Unknown
Sunlit
N/A
Visualization observer readout
Local Sidereal Time
22:27:56
Azimuth
Unknown
Elevation
Unknown
Doppler factor
Unknown
Orbital elements
Apogee altitude
693.716 km
Perigee altitude
648.465 km
Semi-major axis
7,049.228 km
Eccentricity
0.00321
Inclination
99.1966°
RAAN
28.1039°
Arg. of periapsis
277.4944°
True anomaly
82.62564°
Mean anomaly
82.261°
Eccentric anomaly
82.4433°
Mean motion
3.66717 °/min
Orbital period
98.17 mins
BSTAR
0.0025259
Loading maneuver chart data...
Computing Atmospheric mass density...

Documentation

Showing up to 5 results
|